GFSSE_sfc_30mbdewp_234.txt.gz
Dewpoint
56 68 71 72 72 72 71 71 71 71 72 72 72 72 73 72 72 72 72 71 70 69 68 69 70 69 68 68 69 70 69 69 69 69 68 68 66 65 67 66 67 67 68
60 67 71 71 72 72 71 71 71 72 72 71 72 72 72 72 73 72 72 71 71 70 69 69 69 68 68 68 69 69 69 69 69 69 69 68 66 66 66 66 66 67 68
60 67 69 71 72 71 71 71 71 72 72 72 72 72 72 72 72 72 72 71 70 70 69 69 69 69 69 69 68 68 68 68 69 67 66 65 67 65 65 67 67 67 67
61 63 69 70 71 72 71 71 72 72 72 72 72 72 72 72 72 72 71 71 70 70 69 68 67 69 69 68 68 67 67 67 68 68 62 61 63 67 68 69 68 66 65
57 61 69 70 70 71 71 71 72 72 72 72 71 71 71 72 72 71 71 71 70 70 69 69 69 69 68 68 67 66 66 66 66 66 59 61 63 67 67 68 69 68 65
56 63 70 71 71 72 71 71 72 72 71 71 71 71 71 71 71 71 71 71 70 70 69 69 69 68 67 66 65 64 65 65 65 64 58 61 64 67 67 68 67 68 67
57 67 69 71 71 71 71 71 71 71 71 71 71 71 71 71 71 71 71 71 70 70 69 69 68 67 66 65 64 63 62 62 62 59 59 64 67 67 67 67 67 67 67
64 64 69 71 71 71 71 71 70 70 70 70 70 70 71 70 70 70 71 71 70 70 69 68 67 66 65 65 64 63 63 63 61 60 60 64 67 66 66 66 67 67 67
64 62 66 69 70 70 70 70 69 69 70 70 70 70 70 69 69 70 70 70 70 69 68 68 67 66 64 62 61 60 60 60 61 61 62 64 67 66 66 66 67 67 67
63 63 65 67 70 70 70 69 69 69 69 69 69 69 69 69 69 69 70 70 70 69 67 68 67 66 64 62 61 59 59 59 58 60 61 62 66 66 66 66 66 66 66
63 64 64 64 66 68 68 68 68 69 69 69 69 69 68 66 68 69 67 69 69 68 67 67 67 66 64 63 62 61 60 58 58 59 62 64 67 66 66 66 66 66 66
62 64 64 64 64 65 62 67 68 68 68 68 68 69 66 63 64 65 64 67 68 67 67 66 66 66 65 63 62 61 60 59 58 60 63 66 67 67 67 67 67 66 66
61 63 64 65 65 64 59 66 65 65 66 66 66 68 65 61 62 61 66 66 67 67 66 66 66 65 63 63 62 60 59 59 57 57 64 66 67 68 68 68 67 67 67
59 62 63 65 65 65 62 63 62 63 63 64 65 66 64 64 62 60 65 65 63 64 64 64 64 64 63 63 63 63 61 60 60 60 64 65 66 68 69 69 68 67 67
58 60 62 63 65 65 64 63 60 60 61 62 63 66 64 63 64 61 60 63 62 60 62 63 62 63 63 62 62 62 61 62 60 58 63 64 65 67 69 69 69 69 68
57 60 62 62 65 65 65 63 61 60 60 61 61 63 65 63 63 63 61 61 61 60 60 59 60 60 62 61 61 62 61 61 60 58 58 63 63 65 67 68 69 70 69
56 59 61 63 65 66 65 66 63 62 61 60 61 62 64 64 63 62 62 61 60 60 61 59 59 60 60 60 61 61 60 61 61 61 60 59 63 63 64 66 68 70 69
53 57 61 61 65 66 65 65 63 63 62 60 61 62 64 63 63 63 61 61 61 61 60 61 60 60 60 60 60 60 60 61 61 61 60 59 58 63 63 64 65 67 69
50 55 61 61 63 66 66 65 65 63 64 63 61 61 64 64 62 62 59 60 60 60 60 60 60 60 59 59 58 59 59 58 59 59 60 59 58 57 63 62 63 64 66
47 54 59 61 62 66 66 66 65 64 64 63 63 62 63 64 63 62 61 59 61 58 59 59 59 60 59 58 57 54 58 58 58 57 57 57 58 57 58 61 62 63 63
46 52 57 60 61 64 65 65 64 63 63 63 63 63 62 63 64 63 61 61 61 59 58 59 60 59 59 58 57 56 56 58 57 57 57 57 56 56 57 61 64 63 63
45 52 55 59 61 63 64 64 64 64 63 63 63 63 63 63 64 64 62 61 60 59 59 59 58 59 59 60 56 56 54 54 55 57 57 56 57 57 56 59 60 63 63
47 51 53 58 61 61 63 64 64 63 64 63 63 63 63 63 64 64 64 63 61 59 59 59 60 59 57 58 59 55 54 52 54 57 57 58 58 61 61 59 61 61 63
48 52 52 55 60 61 62 62 62 61 60 61 62 62 62 63 63 64 65 64 63 61 59 59 61 61 59 58 59 59 57 58 56 54 62 60 63 63 63 61 63 66 66
49 52 54 56 59 61 62 61 62 61 61 61 61 61 63 63 63 64 65 65 64 63 62 60 60 61 61 59 58 59 58 58 58 58 55 57 64 65 65 66 67 66 66
34 37 44 47 53 61 63 63 62 62 61 61 61 61 62 63 64 64 65 65 66 65 64 63 62 62 61 61 60 59 59 58 58 59 59 59 58 62 65 66 65 65 65

GFSSE_sfc_30mbdewp_237.txt.gz
Dewpoint
67 72 73 73 72 71 70 70 71 71 71 72 72 71 71 72 72 72 71 70 69 70 69 69 69 69 68 69 69 70 69 69 69 69 68 67 66 68 68 68 67 67 68
68 72 72 72 72 71 70 70 71 71 71 72 72 71 71 72 72 72 71 71 70 69 69 69 68 68 68 68 69 69 69 69 69 69 67 66 66 67 68 68 68 68 68
69 71 71 72 71 71 71 71 71 71 72 72 72 72 72 72 72 72 71 71 70 69 69 69 69 68 68 68 68 68 68 68 68 68 67 66 66 64 65 67 68 66 66
69 70 71 71 71 71 71 71 72 72 72 71 72 72 72 72 72 71 71 70 70 69 69 69 68 68 68 67 67 67 68 68 68 67 64 64 65 69 69 67 65 65 65
67 69 71 71 71 71 71 71 72 72 72 71 71 72 72 72 72 71 71 70 70 70 68 68 68 68 67 66 66 66 67 66 67 66 62 64 66 67 68 68 67 66 66
66 70 70 71 71 71 71 72 72 71 71 71 71 71 72 72 71 71 71 70 70 70 69 68 68 67 66 65 65 65 65 64 64 63 62 65 67 67 68 68 67 67 66
67 69 69 69 71 71 71 71 71 71 70 70 70 71 71 71 71 71 71 70 70 70 70 69 68 66 65 63 63 62 62 62 62 61 64 65 67 68 67 67 67 67 67
67 70 70 71 71 71 71 71 70 70 70 70 70 70 71 71 70 71 71 70 70 70 69 68 66 65 64 63 62 62 62 62 61 61 64 65 68 68 67 67 67 67 67
66 69 70 70 71 71 70 70 70 70 70 70 70 70 70 69 70 70 71 70 70 69 68 66 66 65 63 62 61 60 60 60 61 61 63 64 66 66 65 66 67 67 67
65 68 69 70 70 70 70 69 69 69 69 69 69 69 69 69 69 70 70 70 70 68 67 67 66 65 63 61 60 60 60 60 58 60 62 63 66 66 65 66 66 66 66
63 66 68 69 70 69 69 69 69 69 69 69 69 69 68 68 69 69 69 70 69 68 67 67 66 65 64 62 61 60 60 59 57 59 61 65 67 66 66 66 66 66 66
61 63 66 68 69 69 68 68 68 69 69 69 69 68 67 67 67 68 68 69 68 67 66 67 66 65 65 63 62 61 60 58 58 62 60 64 67 67 66 66 66 66 66
62 62 64 65 67 67 66 67 68 68 68 68 68 68 66 65 65 66 66 68 68 67 66 66 66 66 64 63 63 62 59 58 59 62 60 65 67 68 66 66 66 66 66
62 62 63 63 64 64 64 65 66 66 67 67 67 67 65 62 63 63 64 66 66 67 65 65 65 64 64 63 63 63 61 60 61 62 63 66 67 69 68 67 66 66 66
62 63 63 64 63 62 63 63 64 64 65 65 65 67 64 64 62 61 64 65 64 65 65 64 64 64 63 63 63 63 62 62 61 61 63 65 66 68 70 68 68 67 67
62 63 64 64 64 62 63 62 61 63 63 64 64 65 65 64 64 60 63 64 63 62 63 63 63 63 63 63 62 61 62 61 61 60 62 64 65 67 69 70 70 69 68
60 62 63 64 64 64 64 62 60 61 62 62 63 64 66 64 63 61 61 63 63 61 61 61 61 62 62 62 61 60 60 60 60 60 61 62 63 64 66 68 70 70 70
59 61 62 63 65 64 64 64 60 60 61 61 62 63 65 64 63 64 62 61 62 60 61 59 58 59 60 60 60 61 61 60 60 60 60 60 61 63 63 65 66 68 69
58 60 62 62 64 65 64 65 63 62 62 59 62 61 64 64 63 64 63 62 61 61 60 61 59 58 59 60 60 60 60 60 61 60 61 60 60 60 62 62 63 65 66
57 60 61 62 64 65 65 64 65 62 63 62 60 62 63 63 62 63 62 61 61 61 61 61 60 61 59 58 59 58 58 59 59 60 60 60 60 59 59 61 62 62 63
55 60 60 61 64 65 65 63 63 64 63 62 63 60 63 64 63 61 62 60 60 60 59 59 60 58 59 59 58 58 57 57 58 58 58 57 58 58 58 58 61 62 62
53 58 60 60 63 65 64 65 63 63 64 64 63 63 61 64 64 62 60 61 59 60 59 58 58 59 59 59 57 56 54 54 55 58 58 57 56 57 57 57 59 62 62
52 57 59 60 62 64 64 65 65 64 64 63 63 63 63 63 64 64 62 60 61 58 59 58 58 58 57 59 58 55 54 52 53 56 56 57 56 56 58 57 58 59 63
51 55 58 60 60 63 64 64 64 63 62 63 63 63 63 64 64 64 63 62 61 61 58 59 59 59 57 57 59 58 56 56 54 54 59 58 58 58 59 60 61 61 63
49 53 57 59 60 60 64 64 63 63 63 62 63 63 63 63 63 64 64 63 63 61 61 59 59 60 60 57 58 58 58 58 57 56 54 55 62 62 62 62 63 64 65
48 53 55 58 59 60 61 63 63 62 62 62 62 62 62 63 63 63 65 64 64 63 61 61 60 60 59 60 58 59 57 56 56 56 56 56 56 58 63 65 65 65 64

GFSSE_sfc_30mbdewp_240.txt.gz
Dewpoint
68 72 73 71 70 70 69 69 70 70 71 71 71 72 72 72 72 71 70 70 70 69 69 69 68 69 69 68 69 69 70 70 69 69 68 69 68 68 67 67 68 67 66
69 71 72 71 70 70 70 70 70 71 71 71 71 72 72 72 71 70 71 70 70 69 68 69 68 68 68 69 69 69 69 69 68 68 68 68 68 67 67 67 68 69 68
69 71 72 71 70 70 70 71 70 71 71 71 71 72 72 72 71 71 71 70 69 69 68 68 68 67 67 69 69 69 69 68 67 67 67 65 66 65 66 66 67 68 69
70 71 71 71 70 70 70 71 71 71 71 71 72 72 72 72 71 71 70 70 70 69 68 68 67 67 67 68 68 68 68 68 67 65 64 66 66 65 65 65 65 66 67
70 71 71 71 70 70 70 71 71 71 71 71 71 72 72 72 71 71 70 70 70 69 68 68 67 67 67 67 67 67 67 67 66 63 64 66 68 68 67 66 65 65 65
69 70 71 70 70 70 70 71 71 71 70 71 71 72 72 71 71 70 70 70 70 69 68 68 67 66 66 66 66 65 65 64 63 62 63 67 66 67 68 67 66 66 66
69 70 70 70 70 70 71 71 70 70 70 70 71 71 71 71 71 70 70 70 70 70 68 68 66 65 64 63 63 62 62 61 61 61 65 66 68 68 68 66 66 66 66
68 69 70 70 70 70 71 70 70 70 70 70 70 71 71 70 70 70 70 70 70 70 69 67 65 64 63 62 62 61 61 61 61 62 64 66 68 68 67 67 67 67 66
68 68 68 70 70 70 70 70 69 69 69 69 70 70 70 70 70 70 70 70 69 69 67 66 65 64 63 62 61 60 60 60 60 60 64 66 68 67 66 66 66 67 66
68 67 67 68 70 70 70 69 69 69 69 69 69 69 69 69 70 70 70 70 69 68 66 66 65 63 62 61 60 60 60 60 58 60 63 64 68 66 65 65 66 66 66
66 67 67 67 68 69 69 69 69 69 69 69 69 68 68 69 69 70 70 69 69 67 66 66 65 64 62 62 61 61 62 60 58 59 62 61 66 66 65 66 66 66 66
63 66 67 67 68 68 68 69 68 69 69 69 68 68 67 68 68 69 69 69 68 66 66 66 65 65 64 63 61 61 60 60 58 61 61 61 66 67 66 67 66 66 66
60 65 67 67 68 68 67 68 68 68 68 68 68 67 66 66 67 68 68 69 68 67 66 66 66 65 64 63 62 62 62 60 58 61 60 62 66 68 66 66 66 65 65
60 62 66 67 68 67 67 67 67 67 67 67 67 67 65 65 65 65 66 67 67 67 65 65 65 65 64 63 63 62 63 62 60 62 62 62 65 68 68 66 65 66 66
60 60 64 66 67 66 66 66 66 66 67 66 67 66 65 63 63 64 64 66 66 66 65 64 64 64 63 63 62 63 63 63 62 61 63 62 64 67 69 68 66 66 66
60 60 62 63 65 64 65 65 65 65 65 65 66 66 65 63 63 61 63 64 65 65 65 64 63 63 63 63 62 62 62 62 62 61 62 63 63 65 68 70 69 68 67
61 62 61 62 63 62 63 63 63 63 64 64 64 65 66 63 63 61 63 63 63 63 63 63 63 63 62 63 62 62 61 61 61 60 60 62 63 65 65 68 69 70 69
62 62 62 62 62 61 63 62 61 62 63 63 63 64 66 64 63 63 61 63 63 62 62 61 61 62 62 61 62 61 61 61 60 60 60 60 62 62 63 65 66 68 69
62 62 63 62 62 62 61 63 60 60 62 61 63 63 64 65 64 63 62 61 63 62 61 60 59 58 59 60 60 61 61 61 60 60 60 60 60 61 62 62 63 65 66
60 62 63 63 63 63 62 64 62 60 61 61 61 62 63 64 64 63 63 63 62 62 61 61 59 59 57 57 58 59 60 60 60 60 60 60 60 60 60 61 61 62 62
58 61 62 63 64 63 62 62 64 61 61 61 60 61 62 63 64 63 63 63 62 61 61 60 60 59 59 59 57 58 58 58 58 59 60 60 60 60 60 60 60 61 61
57 60 61 62 63 64 63 62 63 64 62 62 61 60 62 63 63 63 61 62 61 61 60 60 60 59 59 60 57 56 55 55 56 57 58 58 58 58 58 58 59 60 61
56 58 60 61 63 64 63 63 62 63 64 63 63 62 61 63 63 63 61 61 61 60 60 59 59 59 58 59 59 56 54 53 53 54 55 57 58 58 58 57 57 58 60
54 57 60 60 62 64 64 63 62 60 61 63 63 63 63 62 64 63 62 61 60 61 60 59 59 58 58 57 59 58 56 54 51 49 56 58 57 57 57 58 58 58 59
52 56 59 60 61 63 64 64 63 61 60 60 63 63 63 64 63 63 64 62 61 61 60 59 59 59 58 57 57 58 58 57 57 54 52 53 56 60 59 59 60 60 61
46 54 57 59 60 62 63 63 63 62 61 61 62 62 63 63 64 64 63 63 63 61 61 60 59 59 59 59 57 57 57 56 56 56 55 55 54 55 59 62 62 62 63

GFSSE_sfc_30mbdewp_246.txt.gz
Dewpoint
61 70 70 70 70 70 70 70 71 71 71 72 72 72 71 71 71 71 71 71 70 70 70 70 70 69 67 67 68 70 70 70 70 68 66 64 64 65 64 64 64 64 65
65 71 70 70 70 70 70 70 70 71 71 71 72 72 71 71 71 71 71 71 70 69 69 69 68 68 67 68 69 69 69 70 69 68 66 65 67 68 67 65 65 64 64
68 70 70 70 70 70 70 70 70 71 71 71 71 71 71 71 70 70 70 70 70 69 68 67 67 67 68 69 69 68 68 68 69 68 66 65 66 68 69 67 66 64 63
68 69 70 70 70 70 70 70 70 71 71 71 71 71 71 71 70 70 70 70 69 68 68 67 67 67 68 69 68 67 67 67 67 66 64 64 64 66 68 69 67 66 65
68 68 70 70 70 69 70 70 70 71 71 71 71 71 70 70 70 70 70 70 69 68 66 66 66 67 69 68 67 67 66 65 65 65 65 64 64 63 65 68 68 68 66
68 68 70 69 70 69 70 70 70 71 71 71 71 71 70 70 69 70 69 69 69 68 66 66 67 68 68 67 68 66 65 64 64 65 67 67 65 64 64 65 66 68 67
67 68 70 69 69 69 69 70 70 70 70 71 71 71 71 70 70 70 69 69 69 68 67 67 67 66 66 66 66 64 62 61 61 63 66 67 67 67 66 64 65 65 66
67 68 69 69 69 70 69 69 69 69 70 71 71 71 71 70 69 69 70 69 69 69 68 66 65 65 65 65 63 62 60 61 61 62 65 65 67 68 66 65 65 65 65
67 67 68 69 70 69 69 68 68 69 69 70 70 70 70 69 69 70 70 69 68 68 66 64 64 63 63 62 61 60 60 60 61 63 64 65 67 68 67 66 66 66 66
66 66 67 69 69 69 69 68 68 68 69 69 69 69 69 68 69 69 69 69 67 66 65 64 63 62 62 61 60 60 60 61 60 60 63 64 66 68 67 67 66 66 66
65 65 67 68 68 68 68 68 68 68 68 69 69 69 68 69 69 69 69 68 67 66 65 64 63 62 62 61 61 62 62 60 59 58 61 63 65 67 67 67 67 67 66
63 64 66 67 68 68 68 68 68 68 68 68 69 69 68 68 68 69 68 68 67 65 65 64 64 63 62 61 61 61 60 60 59 58 59 62 65 66 67 67 67 67 66
63 65 67 67 67 66 67 67 67 68 67 67 67 67 67 67 68 68 68 68 67 66 64 64 65 64 63 62 62 61 61 62 61 61 61 62 63 65 66 68 67 67 67
62 63 65 65 65 65 67 67 66 66 66 66 67 66 66 66 66 66 66 66 66 66 63 64 64 63 63 63 63 62 62 62 62 63 62 62 63 64 65 67 68 67 67
61 62 64 64 64 64 66 66 65 65 65 65 65 66 65 65 65 65 65 65 65 65 63 63 63 63 63 62 62 62 62 61 62 62 62 62 62 64 66 67 68 68 68
60 61 63 64 64 64 65 65 65 65 65 65 65 65 65 64 64 64 64 65 65 65 64 63 62 62 62 62 61 61 61 61 61 61 62 62 62 63 64 66 69 69 69
57 60 63 64 64 64 64 65 65 65 65 64 64 65 65 63 63 63 63 64 64 64 64 64 62 62 61 61 61 61 61 61 61 61 61 61 62 62 62 63 66 68 70
58 57 62 63 63 64 64 65 65 65 65 64 65 65 65 63 62 62 62 62 63 64 64 63 62 61 61 60 60 60 60 61 61 61 61 61 61 61 62 62 63 64 66
58 57 59 63 63 63 64 65 64 64 64 64 64 64 64 64 63 62 61 62 62 62 63 62 62 61 59 59 60 60 60 60 60 61 61 61 60 61 61 61 61 62 63
59 59 58 60 62 64 64 64 64 63 64 63 63 63 64 64 63 62 61 61 62 62 62 61 61 60 60 59 58 58 59 59 60 60 60 60 60 60 61 61 61 61 61
60 59 59 58 60 62 62 62 62 61 62 62 62 62 63 63 64 62 61 61 62 62 62 61 61 60 59 58 57 57 57 58 58 59 60 60 60 60 60 60 61 61 61
58 60 60 59 59 60 59 60 59 59 60 61 61 61 62 62 63 63 61 61 61 61 61 61 60 59 59 59 57 56 55 55 56 58 59 59 59 60 60 61 61 61 61
55 59 60 60 59 59 58 58 58 58 59 58 59 59 60 61 62 63 62 61 61 61 60 61 61 60 58 59 58 57 54 53 54 54 54 57 58 58 59 59 59 60 60
46 56 60 60 60 59 59 57 56 56 55 56 56 58 58 60 60 61 61 62 61 61 61 61 61 60 60 58 59 59 58 55 53 52 53 55 57 56 56 57 58 58 59
26 38 57 60 61 61 60 57 56 55 56 55 56 57 59 60 60 60 61 61 60 61 60 60 61 61 60 59 59 58 59 58 56 55 55 56 55 56 57 58 57 58 58
41 41 31 56 60 61 61 60 57 56 56 56 57 58 59 60 61 61 61 61 61 61 60 61 61 61 60 60 60 59 58 57 57 57 56 56 55 56 56 57 58 58 58

GFSSE_sfc_30mbdewp_249.txt.gz
Dewpoint
63 66 70 70 71 71 72 72 72 72 72 72 72 71 72 72 72 72 71 72 71 71 70 70 69 68 67 67 68 70 70 69 67 66 65 64 64 64 64 65 64 61 65
65 67 70 70 70 71 71 72 72 72 72 72 72 72 71 71 72 72 71 71 71 70 69 69 68 67 67 69 70 70 70 69 68 66 66 65 65 64 64 64 63 64 67
66 67 68 70 70 70 71 71 71 72 72 72 72 71 71 71 71 71 71 70 70 69 69 68 67 67 68 69 69 70 70 69 68 67 65 64 66 66 66 65 65 64 66
66 66 66 70 70 70 70 71 71 72 72 71 71 71 71 71 71 71 71 70 70 69 68 67 67 67 68 68 68 68 68 67 67 65 58 61 64 68 68 66 65 64 63
66 66 66 70 70 70 70 71 71 71 71 71 71 71 71 70 70 70 70 69 69 69 67 67 67 68 67 67 66 66 66 65 65 59 57 58 59 67 68 66 67 66 65
66 66 69 69 70 70 70 70 71 71 71 71 71 71 70 70 70 70 70 69 68 68 67 66 68 68 67 67 66 65 65 65 65 60 59 61 59 64 67 68 68 67 67
66 67 67 69 69 70 70 70 70 70 70 71 71 70 70 70 70 69 69 69 68 68 67 68 68 67 67 67 66 64 63 63 58 61 64 64 62 65 63 65 67 68 67
66 67 67 69 69 70 70 70 70 70 71 71 70 70 70 70 69 69 69 69 69 68 68 68 67 67 66 66 65 62 61 62 61 60 61 62 66 68 66 64 65 65 66
66 67 67 67 68 69 69 69 69 70 70 70 70 70 70 69 69 70 69 69 69 68 67 66 66 66 65 64 62 61 60 60 61 61 62 62 67 69 67 66 65 65 65
67 67 67 67 67 67 68 68 68 69 70 70 70 69 68 68 69 69 69 69 68 66 65 65 65 64 64 62 61 60 60 60 59 60 63 63 65 68 68 67 66 66 66
65 66 67 67 67 67 67 67 68 68 69 69 69 68 67 65 67 68 67 68 67 65 64 64 63 62 62 61 60 61 61 59 59 58 58 61 65 66 68 68 68 67 66
63 65 66 67 66 67 65 66 66 66 66 67 67 67 66 66 66 65 67 68 66 65 64 63 63 62 61 58 59 61 59 59 59 59 59 61 64 66 67 69 68 67 67
62 64 65 66 66 66 64 65 65 65 66 67 67 67 67 67 67 66 65 65 65 65 62 62 62 60 59 59 59 60 60 61 60 61 61 61 63 66 66 68 68 67 67
61 63 64 65 66 66 65 65 64 64 65 65 67 68 67 67 67 66 65 65 65 62 61 61 60 61 62 62 62 61 61 60 60 62 63 62 62 65 66 67 69 68 67
61 63 64 65 66 65 65 64 64 64 65 64 65 67 66 66 65 65 65 64 64 64 62 61 61 62 62 62 62 62 61 61 62 62 63 63 62 63 66 66 68 69 69
59 62 64 66 65 65 65 65 64 65 64 64 64 65 66 65 64 64 64 64 63 64 63 61 60 61 61 62 62 62 61 61 61 61 61 62 62 62 63 66 68 69 70
57 59 63 64 65 65 64 65 65 64 64 64 63 64 66 65 64 63 63 63 62 64 64 63 62 62 61 61 61 61 61 61 60 61 60 60 60 61 62 63 65 67 69
54 58 61 63 64 64 64 64 64 64 64 64 63 63 64 64 63 62 61 61 62 62 62 62 61 60 59 59 58 58 58 59 59 60 60 60 59 59 60 61 62 63 65
56 57 58 61 63 63 63 63 64 64 64 63 63 63 63 64 63 62 60 60 62 61 61 61 60 60 56 57 57 57 58 57 57 56 57 58 59 60 59 60 61 61 62
57 57 57 60 61 63 63 63 63 63 64 64 63 63 63 63 63 62 60 61 62 59 59 60 59 60 59 57 56 55 58 59 59 58 56 56 57 60 61 61 61 61 61
58 59 58 59 61 62 61 61 62 62 62 63 63 63 63 63 63 62 60 60 61 59 58 59 59 59 58 60 59 57 59 60 60 59 59 59 58 59 61 61 61 61 60
34 59 59 59 60 62 60 60 60 61 62 62 62 63 63 63 63 62 61 60 60 58 60 60 60 58 59 60 57 57 53 53 58 60 60 60 60 60 59 61 61 61 61
41 42 59 60 60 61 60 60 60 58 60 61 61 62 63 63 63 63 62 61 61 61 59 61 61 60 57 60 60 56 55 51 55 57 58 59 60 60 60 60 61 61 61
39 44 47 56 61 60 61 59 58 56 55 56 58 59 60 62 62 63 63 62 61 61 60 60 61 61 60 57 60 60 60 58 52 47 56 57 58 58 59 59 59 60 60
36 40 45 50 51 61 60 60 59 57 55 54 56 56 59 60 62 62 62 62 62 61 61 60 61 61 60 59 59 58 60 59 60 57 55 54 59 59 59 59 59 61 60
36 38 40 44 53 54 62 61 59 58 57 55 55 56 57 57 59 61 61 61 61 61 61 61 61 61 61 60 59 59 57 56 57 58 57 57 57 58 58 59 60 60 61